KMPO Airport (Pocono Mountains Muni) Information

FAA: MPO - ICAO: KMPO

KMPO Airport Location

State Pennsylvania
County Monroe
City Mount Pocono
KMPO Airport is 2 miles northwest of Mount Pocono, PA.
Latitude 41-08-15.7000N
Longitude 075-22-48.2000W
Elevation 1,915ft

KMPO Airport METARs

METAR KMPO 251653Z AUTO 14007KT 10SM FEW013 16/13 A2989 RMK AO2 SLP125 T01610133
Altimeter 29.89"
Temperature 16.1°C (61.0°F)
Wind 140° at 7KT
Clouds few at 1,300ft
Visibility 10.0mi
Time observed: 2021-10-25T16:53:00Z

KMPO Airport Details

Status Operational
Activation July 1938
Ownership Public
Usage Public
Chart NEW YORK
ATC on-site No
Beacon schedule sunset-sunrise
Beacon color clear green

KMPO Airport Contacts

Owner POCONO MTNS MUNI ARPT AUTH
Owner address 188 AIRPORT DR, TOBYHANNA, PA 18466
Owner phone 570-839-0258
Manager GABE MONZO
Manager address 605 AIRPORT RD, BELLE VERNON, PA 15012
Manager phone 724-379-6980

KMPO Airport (Pocono Mountains Muni) Radio Frequencies

KMPO (Airport) Radio Frequencies

UNICOM 122.7
Common traffic advisory frequency (CTAF) 122.7